Location: Newark
(25.6108°S, 54.5803°W)
Time: 15:16:13
(UTC+00:00)

Tiros 1 - Visible Passes

Search period start: 21 October 2020 00:00
Search period end: 31 October 2020 00:00
Orbit: 630 x 664 km, 48.4° (Epoch: 20 October)

Date Brightness Start Highest point End Pass type
(mag) Time Alt. Az. Time Alt. Az. Time Alt. Az.
28 Oct 9.8 00:20:34 10° S 00:21:43 12° SSE 00:21:43 12° SSE visible
29 Oct 9.7 00:45:08 10° SSW 00:46:31 16° S 00:46:31 16° S visible
29 Oct 9.6 23:30:43 10° S 23:32:23 12° SSE 23:33:41 11° SE visible
30 Oct 10.0 01:10:35 10° SW 01:11:21 14° SW 01:11:21 14° SW visible
